Location: Brompton
(51.4000°N, 0.5333°E)
Time: 09:40:43
(UTC+00:00)

ATLAS 2AS CENTAUR R/B - Pass Details

Date: 11 May 2021
Orbit: 949 x 1263 km, 63.7° (Epoch: 07 May)

Event Time Altitude Azimuth Distance (km) Brightness Sun altitude
Rises 23:12:27 0° 314° (NW) 4,094 6.6 -19.9°
Reaches altitude 10° 23:15:31 10° 306° (NW) 3,082 5.7 -20.0°
Maximum altitude 23:21:57 35° 245° (WSW) 1,722 3.6 -20.1°
Enters shadow 23:24:29 27° 207° (SSW) 1,958 3.6 -20.2°
